Location: Home
(42.5358°N, 72.7383°W)
Time: 09:21:36
(UTC-04:00)

A-11 Canister half - Pass Details

Date: 27 June 2022
Orbit: 1514 x 1685 km, 47.2° (Epoch: 15 August)

Event Time Altitude Azimuth Distance (km) Brightness Sun altitude
Rises 03:01:44 0° 276° (W) 4,923 11.4 -17.9°
Reaches altitude 10° 03:04:59 10° 279° (W) 3,921 10.9 -17.6°
Maximum altitude 03:15:00 67° 2° (N) 1,740 9.4 -16.6°
Drops below altitude 10° 03:24:40 10° 85° (E) 3,792 11.6 -15.6°
Sets 03:27:45 0° 88° (E) 4,754 12.2 -15.2°
